Home > Weather > Corvallis > Past weeks

Flag for USA Past Weather in Corvallis, Oregon, USA — Yesterday and Last 2 Weeks

Now
70 °F

Mild.


Feels Like: 70 °F
Forecast: 50 / 80 °F
Wind: 7 mph from Northwest

Location: Corvallis Municipal

Current Time: Jun 24, 2016 at 6:44:54 PM

Latest Report: Jun 24, 2016 at 6:15 PM


Visibility: 10 mi

Pressure: 30.29 "Hg

Humidity: 43%

Dew Point: 46 °F

Location of CorvallisLocation

Past Weather in Corvallis — Graph

°F

Corvallis Temperature Yesterday

Maximum temperature yesterday: 70 °F (at 1:55 PM)
Minimum temperature yesterday: 54 °F (at 4:55 AM)
Average temperature yesterday: 60 °F

High & Low Weather Summary for the Past Weeks

 TemperatureHumidityPressure
High81 °F (Jun 12, 3:55 PM)94% (Jun 11, 7:15 AM)30.39 "Hg (Jun 11, 7:15 AM)
Low43 °F (Jun 10, 4:15 AM)26% (Jun 12, 3:55 PM)29.94 "Hg (Jun 15, 12:55 PM)
Average58 °F66%30.15 "Hg
* Reported Jun 9 5:15 PM — Jun 24 5:35 PM, Corvallis, Weather by CustomWeather, © 2016

Note: Actual official high and low records may vary slightly from our data, if they occured in-between our weather recording intervals... More about our weather records

Advertising

Corvallis Weather History for the Previous 24 Hours

Scroll right to see more
 ConditionsComfort  
Time TempWeatherWind HumidityBarometerVisibility
5:35 PM
Fri, Jun 24
70 °FMild.8 mph46%30.30 "Hg10 mi
4:55 PM70 °FMild.7 mph43%30.30 "Hg10 mi
4:35 PM70 °FMild.7 mph46%30.31 "Hg10 mi
4:15 PM70 °FMild.7 mph46%30.31 "Hg10 mi
3:55 PM72 °FMild.No wind41%30.31 "Hg10 mi
3:35 PM70 °FMild.6 mph43%30.31 "Hg10 mi
3:15 PM70 °FMild.9 mph43%30.32 "Hg10 mi
2:55 PM70 °FMild.6 mph40%30.32 "Hg10 mi
2:35 PM70 °FMild.3 mph43%30.31 "Hg10 mi
2:15 PM68 °FMild.7 mph46%30.31 "Hg10 mi
1:55 PM68 °FMild.9 mph46%30.31 "Hg10 mi
1:35 PM68 °FMild.7 mph43%30.31 "Hg10 mi
1:15 PM68 °FMild.3 mph43%30.31 "Hg10 mi
12:55 PM66 °FMild.3 mph46%30.31 "Hg10 mi
12:35 PM66 °FMild.3 mph46%30.30 "Hg10 mi
12:15 PM66 °FMild.3 mph46%30.30 "Hg10 mi
11:55 AM66 °FMild.5 mph49%30.30 "Hg10 mi
11:35 AM66 °FMild.3 mph49%30.30 "Hg10 mi
11:15 AM64 °FMild.No wind52%30.30 "Hg10 mi
10:55 AM63 °FMild.5 mph56%30.30 "Hg10 mi
10:35 AM63 °FMild.3 mph56%30.30 "Hg10 mi
10:15 AM63 °FMild.6 mph56%30.30 "Hg10 mi
9:55 AM63 °FMild.5 mph56%30.29 "Hg10 mi
9:35 AM63 °FMild.No wind56%30.29 "Hg10 mi
9:15 AM61 °FCool.No wind63%30.30 "Hg10 mi
8:55 AM59 °FCool.3 mph77%30.29 "Hg10 mi
8:35 AM57 °FCool.No wind77%30.29 "Hg10 mi
8:15 AM55 °FCool.3 mph82%30.29 "Hg10 mi
7:55 AM54 °FCool.No wind82%30.28 "Hg10 mi
7:35 AM52 °FCool.No wind88%30.28 "Hg10 mi
7:15 AM52 °FCool.No wind88%30.27 "Hg10 mi
6:55 AM50 °FCool.No wind88%30.27 "Hg10 mi
6:35 AM48 °FCool.3 mph94%30.27 "Hg10 mi
6:15 AM52 °FCool.No wind88%30.26 "Hg10 mi
5:55 AM50 °FCool.No wind94%30.26 "Hg10 mi
5:35 AM50 °FCool.No wind88%30.25 "Hg10 mi
5:15 AM48 °FCool.3 mph94%30.25 "Hg2 mi
4:55 AM48 °FCool.No wind94%30.25 "Hg1 mi
4:35 AM50 °FCool.No wind88%30.24 "Hg1 mi
4:15 AM52 °FCool.No wind88%30.24 "Hg10 mi
3:55 AM52 °FCool.3 mph88%30.23 "Hg10 mi
3:35 AM52 °FCool.No wind88%30.24 "Hg10 mi
3:15 AM52 °FCool.No wind88%30.23 "Hg10 mi
2:55 AM52 °FCool.No wind94%30.23 "Hg10 mi
2:35 AM52 °FCool.3 mph88%30.23 "Hg10 mi
12:15 AM55 °FCool.6 mph77%30.21 "Hg10 mi
11:55 PM
Thu, Jun 23
55 °FCool.3 mph77%30.20 "Hg10 mi
11:35 PM55 °FCool.No wind77%30.19 "Hg10 mi
11:15 PM55 °FCool.No wind77%30.19 "Hg10 mi
10:55 PM55 °FCool.5 mph77%30.19 "Hg10 mi
10:35 PM57 °FCool.6 mph72%30.19 "Hg10 mi
10:15 PM57 °FCool.3 mph72%30.19 "Hg10 mi
9:55 PM57 °FCool.No wind72%30.18 "Hg6 mi
9:35 PM57 °FCool.3 mph72%30.17 "Hg10 mi
9:15 PM57 °FCool.3 mph72%30.17 "Hg10 mi
8:55 PM57 °FCool.7 mph72%30.16 "Hg10 mi
8:35 PM57 °FCool.5 mph72%30.16 "Hg10 mi
8:15 PM59 °FCool.6 mph68%30.15 "Hg10 mi
7:55 PM61 °FCool.12 mph63%30.15 "Hg10 mi
7:35 PM63 °FMild.14 mph59%30.14 "Hg10 mi
7:15 PM61 °FCool.12 mph63%30.14 "Hg10 mi
6:55 PM63 °FMild.14 mph59%30.13 "Hg10 mi
6:35 PM61 °FCool.13 mph63%30.13 "Hg10 mi
6:15 PM63 °FMild.15 mph56%30.13 "Hg10 mi
Weather by CustomWeather, © 2016

See weather overviewHow to use our weather pages